Weather History for Burlington, WI

Change the Weather History Date:

Monday, March 18, 2013

  Actual Average (KENW) Record (KENW)
Temperature  
Mean Temperature 24 °F -  
Max Temperature 32 °F 41 °F 80 °F (2012)
Min Temperature 17 °F 27 °F 8 °F (1965)
Degree Days  
Heating Degree Days 40    
Moisture  
Dew Point 25 °F    
Average Humidity 87    
Maximum Humidity 100    
Minimum Humidity 73    
Precipitation  
Precipitation 0.03 in - - ()
Sea Level Pressure  
Sea Level Pressure 29.73 in    
Wind  
Wind Speed 10 mph (SSE)    
Max Wind Speed 25 mph    
Max Gust Speed 37 mph    
Visibility 6 miles    
Events Snow    
Averages and records for this station are not official NWS values.
T = Trace of Precipitation, MM = Missing Value Source: NWS Daily Summary

Daily Weather History Graph

Daily Weather History Graph

Search for Another Location

Airport:

Trip Planner

Search our weather history database for the weather conditions in past years. The results will help you decide how hot, cold, wet, or windy it might be!

Date:

Astronomy

Mar. 18, 2013 Rise Set
Actual Time 6:59 AM CDT 7:03 PM CDT
Civil Twilight 6:31 AM CDT 7:31 PM CDT
Nautical Twilight 5:58 AM CDT 8:04 PM CDT
Astronomical Twilight 5:25 AM CDT 8:38 PM CDT
Moon 10:51 AM CDT (3/18) 1:10 AM CDT (3/18)
Length of Visible Light 13h 00m
Length of Day
12h 03m
Waxing Crescent, 41% of the Moon is Illuminated
Mar 18
Waxing Crescent
Mar 19
First Quarter
Mar 27
Full
Apr 2
Last Quarter
Apr 10
New

Hourly Weather History & Observations

Time (CDT) Temp. Windchill Dew Point Humidity Pressure Visibility Wind Dir Wind Speed Gust Speed Precip Events Conditions
12:15 AM 30.2 °F 21.3 °F 23.0 °F 75% 29.99 in 10.0 mi ESE 10.4 mph - N/A   Clear
12:35 AM 30.2 °F 21.3 °F 23.0 °F 75% 29.98 in 10.0 mi ESE 10.4 mph 17.3 mph N/A   Clear
12:55 AM 28.4 °F 19.7 °F 23.0 °F 80% 29.97 in 10.0 mi ESE 9.2 mph 17.3 mph N/A   Clear
1:15 AM 28.4 °F 18.0 °F 23.0 °F 80% 29.96 in 10.0 mi ESE 12.7 mph 16.1 mph N/A   Clear
1:35 AM 28.4 °F 19.1 °F 23.0 °F 80% 29.95 in 10.0 mi ESE 10.4 mph 18.4 mph N/A   Scattered Clouds
1:55 AM 28.4 °F 20.4 °F 23.0 °F 80% 29.94 in 10.0 mi ESE 8.1 mph - N/A   Scattered Clouds
2:15 AM 28.4 °F 19.7 °F 23.0 °F 80% 29.94 in 10.0 mi ESE 9.2 mph - N/A   Scattered Clouds
2:35 AM 28.4 °F 20.4 °F 23.0 °F 80% 29.93 in 10.0 mi ESE 8.1 mph - N/A   Mostly Cloudy
2:55 AM 28.4 °F 19.7 °F 23.0 °F 80% 29.92 in 10.0 mi ESE 9.2 mph - N/A   Scattered Clouds
3:15 AM 26.6 °F 17.5 °F 23.0 °F 86% 29.91 in 10.0 mi ESE 9.2 mph - N/A   Clear
3:35 AM 26.6 °F 17.5 °F 23.0 °F 86% 29.89 in 10.0 mi ESE 9.2 mph - N/A   Scattered Clouds
3:55 AM 28.4 °F 22.2 °F 23.0 °F 80% 29.89 in 10.0 mi East 5.8 mph - N/A   Mostly Cloudy
4:15 AM 28.4 °F 19.7 °F 23.0 °F 80% 29.88 in 10.0 mi East 9.2 mph - N/A   Overcast
4:35 AM 28.4 °F 19.7 °F 23.0 °F 80% 29.86 in 10.0 mi East 9.2 mph - N/A   Overcast
4:55 AM 28.4 °F 19.1 °F 23.0 °F 80% 29.84 in 10.0 mi East 10.4 mph - N/A   Mostly Cloudy
5:15 AM 28.4 °F 20.4 °F 24.8 °F 86% 29.83 in 10.0 mi East 8.1 mph - N/A   Overcast
5:35 AM 28.4 °F 19.1 °F 24.8 °F 86% 29.83 in 10.0 mi East 10.4 mph - N/A   Overcast
5:55 AM 28.4 °F 19.1 °F 24.8 °F 86% 29.83 in 10.0 mi East 10.4 mph - N/A   Overcast
6:15 AM 28.4 °F 19.7 °F 24.8 °F 86% 29.81 in 10.0 mi East 9.2 mph - N/A   Overcast
6:35 AM 28.4 °F 17.5 °F 24.8 °F 86% 29.80 in 10.0 mi East 13.8 mph - N/A   Overcast
6:55 AM 28.4 °F 17.0 °F 24.8 °F 86% 29.79 in 10.0 mi East 15.0 mph - N/A   Overcast
7:15 AM 28.4 °F 18.5 °F 26.6 °F 93% 29.80 in 10.0 mi East 11.5 mph - N/A Snow Light Snow
7:35 AM 28.4 °F 21.2 °F 26.6 °F 93% 29.79 in 1.5 mi East 6.9 mph 16.1 mph N/A Snow Light Snow
7:55 AM 28.4 °F 21.2 °F 26.6 °F 93% 29.77 in 1.2 mi ENE 6.9 mph - N/A Snow Light Snow
8:15 AM 28.4 °F 19.7 °F 26.6 °F 93% 29.76 in 1.8 mi ENE 9.2 mph - N/A Snow Light Snow
8:35 AM 28.4 °F 21.2 °F 26.6 °F 93% 29.75 in 0.8 mi East 6.9 mph - 0.01 in Snow Light Snow
8:55 AM 28.4 °F 19.7 °F 26.6 °F 93% 29.74 in 0.8 mi East 9.2 mph - 0.02 in Snow Snow
9:15 AM 28.4 °F 20.4 °F 28.4 °F 100% 29.73 in 0.8 mi ENE 8.1 mph - 0.01 in Snow Light Snow
9:35 AM 28.4 °F 19.1 °F 26.6 °F 93% 29.71 in 1.8 mi East 10.4 mph - 0.01 in Snow Light Snow
9:55 AM 28.4 °F 19.7 °F 28.4 °F 100% 29.70 in 1.8 mi East 9.2 mph - 0.01 in Snow Light Snow
10:35 AM 30.2 °F 23.4 °F 28.4 °F 93% 29.68 in 1.2 mi East 6.9 mph - N/A Snow Light Snow
10:55 AM 30.2 °F 23.4 °F 28.4 °F 93% 29.67 in 1.2 mi East 6.9 mph - N/A Snow Light Snow
11:15 AM 30.2 °F 24.3 °F 28.4 °F 93% 29.67 in 1.2 mi East 5.8 mph - N/A Snow Light Snow
11:35 AM 30.2 °F 26.7 °F 28.4 °F 93% 29.67 in 1.2 mi East 3.5 mph - N/A Snow Light Snow
11:55 AM 32.0 °F 27.5 °F 30.2 °F 93% 29.66 in 1.0 mi ESE 4.6 mph - N/A Snow Light Snow
12:15 PM 32.0 °F 26.4 °F 30.2 °F 93% 29.64 in 1.5 mi ESE 5.8 mph - N/A Snow Light Snow
12:35 PM 32.0 °F 28.7 °F 30.2 °F 93% 29.64 in 1.2 mi SE 3.5 mph - N/A Snow Light Snow
12:55 PM 32.0 °F 27.5 °F 30.2 °F 93% 29.61 in 1.2 mi SE 4.6 mph - N/A Snow Light Snow
1:15 PM 32.0 °F 27.5 °F 30.2 °F 93% 29.61 in 2.5 mi SSE 4.6 mph - N/A Snow Light Snow
1:35 PM 32.0 °F 27.5 °F 30.2 °F 93% 29.60 in 2.5 mi SSW 4.6 mph - N/A Snow Light Snow
1:55 PM 32.0 °F 27.5 °F 30.2 °F 93% 29.60 in 2.5 mi SSW 4.6 mph - N/A Snow Light Snow
2:15 PM 32.0 °F 25.6 °F 30.2 °F 93% 29.59 in 1.5 mi SW 6.9 mph - N/A Snow Light Snow
2:35 PM 32.0 °F 25.6 °F 30.2 °F 93% 29.58 in 1.0 mi SW 6.9 mph - N/A Snow Light Snow
2:55 PM 32.0 °F 25.6 °F 30.2 °F 93% 29.58 in 1.5 mi WSW 6.9 mph - N/A Snow Light Snow
3:15 PM 32.0 °F 24.2 °F 30.2 °F 93% 29.58 in 2.5 mi SW 9.2 mph - N/A Snow Light Snow
3:35 PM 32.0 °F 23.6 °F 30.2 °F 93% 29.58 in 2.5 mi WSW 10.4 mph - N/A Snow Light Snow
3:55 PM 32.0 °F 23.0 °F 30.2 °F 93% 29.58 in 7.0 mi WSW 11.5 mph - N/A Snow Light Snow
4:15 PM 32.0 °F 22.1 °F 30.2 °F 93% 29.58 in 2.5 mi WSW 13.8 mph - N/A Snow Light Snow
4:35 PM 32.0 °F 23.6 °F 30.2 °F 93% 29.58 in 3.0 mi WSW 10.4 mph 16.1 mph N/A Snow Light Snow
4:55 PM 32.0 °F 22.5 °F 30.2 °F 93% 29.58 in 2.5 mi WSW 12.7 mph 18.4 mph N/A Snow Light Snow
5:15 PM 32.0 °F 23.6 °F 30.2 °F 93% 29.58 in 2.0 mi WSW 10.4 mph - N/A Snow Light Snow
5:35 PM 32.0 °F 23.0 °F 30.2 °F 93% 29.58 in 7.0 mi WSW 11.5 mph 18.4 mph N/A   Overcast
5:55 PM 32.0 °F 24.2 °F 30.2 °F 93% 29.58 in 10.0 mi West 9.2 mph - N/A   Overcast
6:15 PM 32.0 °F 22.5 °F 30.2 °F 93% 29.58 in 5.0 mi WSW 12.7 mph 16.1 mph N/A   Overcast
6:35 PM 32.0 °F 19.8 °F 30.2 °F 93% 29.59 in 2.5 mi West 20.7 mph 32.2 mph N/A   Overcast
6:55 PM 28.4 °F 14.7 °F 26.6 °F 93% 29.61 in 3.0 mi West 21.9 mph 32.2 mph N/A   Overcast
7:15 PM 26.6 °F 14.7 °F 23.0 °F 86% 29.63 in 10.0 mi West 15.0 mph 31.1 mph N/A   Overcast
7:35 PM 26.6 °F 11.4 °F 21.2 °F 80% 29.64 in 10.0 mi WSW 25.3 mph 36.8 mph N/A   Overcast
7:55 PM 24.8 °F 10.3 °F 19.4 °F 80% 29.65 in 10.0 mi West 20.7 mph 34.5 mph N/A   Overcast
8:15 PM 23.0 °F 8.7 °F 19.4 °F 86% 29.67 in 10.0 mi West 18.4 mph 28.8 mph N/A   Overcast
8:35 PM 23.0 °F 7.6 °F 19.4 °F 86% 29.68 in 10.0 mi West 21.9 mph 31.1 mph N/A   Overcast
8:55 PM 23.0 °F 7.2 °F 17.6 °F 80% 29.69 in 10.0 mi West 23.0 mph 31.1 mph N/A   Overcast
9:15 PM 21.2 °F 6.8 °F 15.8 °F 80% 29.70 in 10.0 mi West 17.3 mph 33.4 mph N/A   Overcast
9:35 PM 21.2 °F 6.4 °F 15.8 °F 80% 29.70 in 10.0 mi West 18.4 mph 31.1 mph N/A   Overcast
9:55 PM 21.2 °F 5.6 °F 14.0 °F 74% 29.70 in 10.0 mi West 20.7 mph 28.8 mph N/A   Scattered Clouds
10:15 PM 19.4 °F 4.1 °F 12.2 °F 74% 29.71 in 10.0 mi West 18.4 mph 31.1 mph N/A   Clear
10:55 PM 19.4 °F 2.8 °F 12.2 °F 74% 29.72 in 10.0 mi West 21.9 mph 29.9 mph N/A   Clear
11:15 PM 19.4 °F 4.1 °F 12.2 °F 74% 29.72 in 10.0 mi West 18.4 mph 26.5 mph N/A   Clear
11:35 PM 17.6 °F 2.2 °F 12.2 °F 79% 29.72 in 10.0 mi West 17.3 mph 27.6 mph N/A   Clear
11:55 PM 17.6 °F 2.2 °F 10.4 °F 73% 29.72 in 10.0 mi West 17.3 mph 31.1 mph N/A   Scattered Clouds